Location: ????????
(48.4751°N, 37.6926°E)
Time: 20:21:43
(UTC+00:00)

USA 234 - Pass Details

Date: 20 January 2021
Orbit: 1100 x 1107 km, 123.0° (Epoch: 27 February)

Event Time Altitude Azimuth Distance (km) Brightness Sun altitude
Exits shadow 16:52:54 57° 60° (ENE) 1,288 3.2 -26.7°
Maximum altitude 16:53:49 62° 24° (NNE) 1,228 3.3 -26.9°
Drops below altitude 10° 17:00:16 10° 305° (NW) 2,968 6.2 -27.9°
Sets 17:02:46 0° 303° (WNW) 3,929 7.0 -28.3°
